| time (UTC) | temp F | wind direction | speed MPH | gust MPH | rain 1hr in | rain 24hr in | rain mn in | humidity % | barometer mb |
| 20260509175405 | 82 | 313 | 1.0 | 9.0 | 0.00 | 0.00 | 0.00 | 52 | 1008.2 |
| 20260509173905 | 81 | 316 | 3.0 | 7.0 | 0.00 | 0.00 | 0.00 | 52 | 1008.4 |
| 20260509173404 | 81 | 218 | 2.0 | 7.0 | 0.00 | 0.00 | 0.00 | 51 | 1008.4 |
| 20260509172904 | 81 | 313 | 6.0 | 12.0 | 0.00 | 0.00 | 0.00 | 52 | 1008.5 |
| 20260509172404 | 81 | 350 | 5.0 | 9.0 | 0.00 | 0.00 | 0.00 | 52 | 1008.5 |
| 20260509171405 | 80 | 354 | 3.0 | 6.0 | 0.00 | 0.00 | 0.00 | 54 | 1008.5 |
| 20260509170904 | 80 | 332 | 5.0 | 9.0 | 0.00 | 0.00 | 0.00 | 52 | 1008.6 |
| 20260509170404 | 80 | 337 | 6.0 | 9.0 | 0.00 | 0.00 | 0.00 | 53 | 1008.6 |
| 20260509165404 | 80 | 294 | 4.0 | 10.0 | 0.00 | 0.00 | 0.00 | 54 | 1008.6 |
| 20260509164405 | 79 | 354 | 3.0 | 7.0 | 0.00 | 0.00 | 0.00 | 54 | 1008.6 |
| 20260509163904 | 79 | 306 | 5.0 | 10.0 | 0.00 | 0.00 | 0.00 | 54 | 1008.7 |
| 20260509163404 | 79 | 340 | 1.0 | 3.0 | 0.00 | 0.00 | 0.00 | 56 | 1008.7 |
| 20260509162905 | 79 | 293 | 4.0 | 9.0 | 0.00 | 0.00 | 0.00 | 54 | 1008.7 |
| 20260509162405 | 79 | 305 | 5.0 | 12.0 | 0.00 | 0.00 | 0.00 | 55 | 1008.6 |
| 20260509161904 | 79 | 273 | 5.0 | 8.0 | 0.00 | 0.00 | 0.00 | 54 | 1008.6 |
| 20260509161405 | 79 | 280 | 5.0 | 8.0 | 0.00 | 0.00 | 0.00 | 55 | 1008.7 |
| 20260509160404 | 78 | 303 | 5.0 | 8.0 | 0.00 | 0.00 | 0.00 | 57 | 1008.7 |
| 20260509155904 | 78 | 282 | 4.0 | 8.0 | 0.00 | 0.00 | 0.00 | 56 | 1008.7 |
| 20260509155405 | 77 | 328 | 6.0 | 8.0 | 0.00 | 0.00 | 0.00 | 56 | 1008.6 |
| 20260509154905 | 77 | 293 | 5.0 | 10.0 | 0.00 | 0.00 | 0.00 | 56 | 1008.7 |
| 20260509154404 | 77 | 317 | 4.0 | 9.0 | 0.00 | 0.00 | 0.00 | 57 | 1008.6 |
| 20260509153404 | 77 | 333 | 6.0 | 12.0 | 0.00 | 0.00 | 0.00 | 57 | 1008.4 |
| 20260509152904 | 76 | 346 | 4.0 | 10.0 | 0.00 | 0.00 | 0.00 | 58 | 1008.4 |
| 20260509152404 | 76 | 290 | 8.0 | 12.0 | 0.00 | 0.00 | 0.00 | 59 | 1008.4 |
| 20260509151905 | 76 | 274 | 6.0 | 13.0 | 0.00 | 0.00 | 0.00 | 59 | 1008.4 |
| 20260509151405 | 76 | 320 | 6.0 | 12.0 | 0.00 | 0.00 | 0.00 | 58 | 1008.4 |
| 20260509150905 | 76 | 327 | 7.0 | 12.0 | 0.00 | 0.00 | 0.00 | 58 | 1008.4 |
| 20260509150405 | 76 | 309 | 7.0 | 12.0 | 0.00 | 0.00 | 0.00 | 59 | 1008.3 |
| 20260509145904 | 75 | 303 | 9.0 | 13.0 | 0.00 | 0.00 | 0.00 | 59 | 1008.3 |
| 20260509145404 | 75 | 304 | 7.0 | 13.0 | 0.00 | 0.00 | 0.00 | 59 | 1008.3 |
| 20260509144404 | 75 | 307 | 7.0 | 9.0 | 0.00 | 0.00 | 0.00 | 59 | 1008.3 |
| 20260509143904 | 75 | 290 | 8.0 | 12.0 | 0.00 | 0.00 | 0.00 | 59 | 1008.3 |
| 20260509143404 | 76 | 272 | 6.0 | 12.0 | 0.00 | 0.00 | 0.00 | 59 | 1008.4 |
| 20260509142904 | 75 | 265 | 8.0 | 10.0 | 0.00 | 0.00 | 0.00 | 59 | 1008.3 |
| 20260509142404 | 75 | 273 | 7.0 | 10.0 | 0.00 | 0.00 | 0.00 | 60 | 1008.4 |
| 20260509141904 | 75 | 262 | 4.0 | 9.0 | 0.00 | 0.00 | 0.00 | 59 | 1008.4 |
| 20260509140904 | 75 | 262 | 5.0 | 8.0 | 0.00 | 0.00 | 0.00 | 60 | 1008.4 |
| 20260509140404 | 75 | 221 | 5.0 | 8.0 | 0.00 | 0.00 | 0.00 | 60 | 1008.5 |
| 20260509134904 | 75 | 227 | 4.0 | 8.0 | 0.00 | 0.00 | 0.00 | 60 | 1008.4 |
| 20260509134405 | 74 | 241 | 6.0 | 8.0 | 0.00 | 0.00 | 0.00 | 60 | 1008.3 |
| 20260509133904 | 74 | 253 | 5.0 | 7.0 | 0.00 | 0.00 | 0.00 | 62 | 1008.1 |
| 20260509132904 | 74 | 215 | 3.0 | 6.0 | 0.00 | 0.00 | 0.00 | 66 | 1008.1 |
| 20260509132404 | 73 | 214 | 2.0 | 5.0 | 0.00 | 0.00 | 0.00 | 68 | 1008.0 |
| 20260509131904 | 73 | 220 | 3.0 | 6.0 | 0.00 | 0.00 | 0.00 | 69 | 1008.0 |
| 20260509131404 | 73 | 223 | 3.0 | 5.0 | 0.00 | 0.00 | 0.00 | 70 | 1008.1 |
| 20260509130905 | 72 | 203 | 4.0 | 7.0 | 0.00 | 0.00 | 0.00 | 71 | 1008.0 |
| 20260509130404 | 72 | 209 | 5.0 | 7.0 | 0.00 | 0.00 | 0.00 | 72 | 1008.0 |
| 20260509125905 | 72 | 205 | 5.0 | 10.0 | 0.00 | 0.00 | 0.00 | 73 | 1008.0 |
| 20260509124904 | 71 | 180 | 2.0 | 5.0 | 0.00 | 0.00 | 0.00 | 72 | 1008.0 |
| 20260509124404 | 70 | 130 | 2.0 | 3.0 | 0.00 | 0.00 | 0.00 | 71 | 1008.1 |
| 20260509123904 | 70 | 121 | 1.0 | 3.0 | 0.00 | 0.00 | 0.00 | 70 | 1008.0 |
| 20260509123405 | 70 | 120 | 1.0 | 2.0 | 0.00 | 0.00 | 0.00 | 69 | 1008.0 |
| 20260509122905 | 70 | 120 | 1.0 | 3.0 | 0.00 | 0.00 | 0.00 | 69 | 1008.1 |
| 20260509121404 | 70 | 119 | 2.0 | 3.0 | 0.00 | 0.00 | 0.00 | 69 | 1008.0 |
| 20260509120904 | 70 | 119 | 1.0 | 3.0 | 0.00 | 0.00 | 0.00 | 69 | 1008.0 |
| 20260509115904 | 70 | 124 | 2.0 | 3.0 | 0.00 | 0.00 | 0.00 | 68 | 1007.8 |
| 20260509114905 | 70 | 132 | 2.0 | 3.0 | 0.00 | 0.00 | 0.00 | 68 | 1007.8 |
| 20260509114405 | 70 | 133 | 2.0 | 3.0 | 0.00 | 0.00 | 0.00 | 69 | 1007.8 |
| 20260509113904 | 70 | 140 | 2.0 | 3.0 | 0.00 | 0.00 | 0.00 | 69 | 1007.8 |
| 20260509113404 | 70 | 144 | 2.0 | 3.0 | 0.00 | 0.00 | 0.00 | 69 | 1007.7 |
| 20260509112904 | 70 | 144 | 3.0 | 6.0 | 0.00 | 0.00 | 0.00 | 69 | 1007.6 |
| 20260509112404 | 70 | 144 | 3.0 | 5.0 | 0.00 | 0.00 | 0.00 | 69 | 1007.4 |
| 20260509110904 | 70 | 212 | 1.0 | 3.0 | 0.00 | 0.00 | 0.00 | 69 | 1007.4 |
| 20260509110404 | 70 | 212 | 0.0 | 2.0 | 0.00 | 0.00 | 0.00 | 69 | 1007.6 |
| 20260509105904 | 70 | 212 | 1.0 | 3.0 | 0.00 | 0.00 | 0.00 | 69 | 1007.5 |
| 20260509105404 | 70 | 227 | 2.0 | 3.0 | 0.00 | 0.00 | 0.00 | 69 | 1007.4 |
| 20260509104905 | 70 | 248 | 1.0 | 3.0 | 0.00 | 0.00 | 0.00 | 69 | 1007.4 |
| 20260509104404 | 70 | 248 | 1.0 | 2.0 | 0.00 | 0.00 | 0.00 | 69 | 1007.4 |
| 20260509103904 | 70 | 248 | 0.0 | 2.0 | 0.00 | 0.00 | 0.00 | 69 | 1007.4 |
| 20260509103405 | 70 | 248 | 2.0 | 3.0 | 0.00 | 0.00 | 0.00 | 69 | 1007.4 |
| 20260509102404 | 70 | 187 | 2.0 | 3.0 | 0.00 | 0.00 | 0.00 | 69 | 1007.0 |
| 20260509101405 | 70 | 186 | 0.0 | 2.0 | 0.00 | 0.00 | 0.00 | 69 | 1006.8 |
| 20260509100904 | 70 | 186 | 2.0 | 7.0 | 0.00 | 0.00 | 0.00 | 69 | 1006.8 |
| 20260509100404 | 70 | 191 | 2.0 | 3.0 | 0.00 | 0.00 | 0.00 | 68 | 1006.7 |
| 20260509095905 | 70 | 197 | 2.0 | 5.0 | 0.00 | 0.00 | 0.00 | 68 | 1006.6 |
| 20260509095404 | 70 | 227 | 3.0 | 5.0 | 0.00 | 0.00 | 0.00 | 68 | 1006.6 |
| 20260509094905 | 70 | 120 | 5.0 | 13.0 | 0.00 | 0.00 | 0.00 | 68 | 1005.8 |
| 20260509094404 | 70 | 137 | 5.0 | 13.0 | 0.00 | 0.00 | 0.00 | 68 | 1005.5 |
| 20260509093904 | 70 | 118 | 7.0 | 14.0 | 0.00 | 0.00 | 0.00 | 68 | 1005.5 |
| 20260509093404 | 70 | 120 | 7.0 | 12.0 | 0.00 | 0.00 | 0.00 | 68 | 1005.6 |
| 20260509092904 | 70 | 123 | 6.0 | 12.0 | 0.00 | 0.00 | 0.00 | 67 | 1005.6 |
| 20260509092404 | 70 | 114 | 5.0 | 10.0 | 0.00 | 0.00 | 0.00 | 67 | 1005.3 |
| 20260509091404 | 70 | 116 | 7.0 | 13.0 | 0.00 | 0.00 | 0.00 | 67 | 1005.0 |
| 20260509090904 | 70 | 127 | 8.0 | 13.0 | 0.00 | 0.00 | 0.00 | 66 | 1005.2 |
| 20260509090404 | 70 | 122 | 6.0 | 13.0 | 0.00 | 0.00 | 0.00 | 66 | 1005.6 |
| 20260509084904 | 70 | 132 | 6.0 | 12.0 | 0.00 | 0.00 | 0.00 | 66 | 1006.1 |
| 20260509084404 | 70 | 137 | 5.0 | 12.0 | 0.00 | 0.00 | 0.00 | 66 | 1006.5 |
| 20260509083905 | 70 | 138 | 5.0 | 9.0 | 0.00 | 0.00 | 0.00 | 65 | 1006.9 |
| 20260509083405 | 70 | 120 | 4.0 | 7.0 | 0.00 | 0.00 | 0.00 | 65 | 1007.0 |
| 20260509082904 | 70 | 119 | 3.0 | 6.0 | 0.00 | 0.00 | 0.00 | 65 | 1007.2 |
| 20260509081904 | 70 | 144 | 4.0 | 8.0 | 0.00 | 0.00 | 0.00 | 65 | 1007.8 |
| 20260509081404 | 70 | 122 | 2.0 | 3.0 | 0.00 | 0.00 | 0.00 | 65 | 1007.9 |
| 20260509075905 | 70 | 159 | 3.0 | 5.0 | 0.00 | 0.00 | 0.00 | 64 | 1008.4 |
| 20260509074905 | 70 | 143 | 0.0 | 2.0 | 0.00 | 0.00 | 0.00 | 64 | 1008.5 |
| 20260509074405 | 69 | 143 | 1.0 | 2.0 | 0.00 | 0.00 | 0.00 | 64 | 1008.6 |
| 20260509073904 | 69 | 143 | 1.0 | 3.0 | 0.00 | 0.00 | 0.00 | 64 | 1008.7 |
| 20260509073404 | 69 | 140 | 1.0 | 3.0 | 0.00 | 0.00 | 0.00 | 64 | 1008.8 |
| 20260509072904 | 69 | 140 | 1.0 | 3.0 | 0.00 | 0.00 | 0.00 | 63 | 1009.0 |
| 20260509072405 | 69 | 140 | 1.0 | 2.0 | 0.00 | 0.00 | 0.00 | 63 | 1009.0 |
| 20260509071904 | 69 | 140 | 0.0 | 2.0 | 0.00 | 0.00 | 0.00 | 63 | 1008.9 |
| 20260509071404 | 70 | 140 | 1.0 | 2.0 | 0.00 | 0.00 | 0.00 | 63 | 1008.8 |
| 20260509070904 | 70 | 140 | 0.0 | 3.0 | 0.00 | 0.00 | 0.00 | 62 | 1008.5 |
| 20260509070404 | 70 | 140 | 2.0 | 3.0 | 0.00 | 0.00 | 0.00 | 62 | 1008.1 |
| 20260509064904 | 70 | 150 | 2.0 | 3.0 | 0.00 | 0.00 | 0.00 | 62 | 1008.1 |
| 20260509064404 | 70 | 147 | 1.0 | 3.0 | 0.00 | 0.00 | 0.00 | 61 | 1008.2 |
| 20260509063404 | 70 | 148 | 2.0 | 5.0 | 0.00 | 0.00 | 0.00 | 61 | 1008.0 |
| 20260509062904 | 71 | 161 | 4.0 | 5.0 | 0.00 | 0.00 | 0.00 | 61 | 1008.1 |
| 20260509062404 | 71 | 162 | 0.0 | 0.0 | 0.00 | 0.00 | 0.00 | 61 | 1008.5 |
| 20260509061404 | 71 | 162 | 1.0 | 3.0 | 0.00 | 0.00 | 0.00 | 61 | 1008.7 |
| 20260509060404 | 71 | 161 | 2.0 | 5.0 | 0.00 | 0.00 | 0.00 | 62 | 1008.8 |
| 20260509055905 | 71 | 152 | 4.0 | 6.0 | 0.00 | 0.00 | 0.00 | 62 | 1008.4 |
| 20260509055404 | 71 | 164 | 4.0 | 5.0 | 0.00 | 0.00 | 0.00 | 62 | 1008.6 |
| 20260509054904 | 71 | 15 | 0.0 | 2.0 | 0.00 | 0.00 | 0.00 | 61 | 1009.1 |
| 20260509054404 | 71 | 15 | 0.0 | 2.0 | 0.00 | 0.00 | 0.00 | 61 | 1009.1 |
| 20260509053904 | 71 | 15 | 1.0 | 3.0 | 0.00 | 0.00 | 0.00 | 61 | 1009.4 |
| 20260509053404 | 71 | 14 | 2.0 | 3.0 | 0.00 | 0.00 | 0.00 | 61 | 1009.4 |
| 20260509052904 | 71 | 358 | 3.0 | 3.0 | 0.00 | 0.00 | 0.00 | 61 | 1009.3 |
| 20260509052404 | 71 | 154 | 1.0 | 2.0 | 0.00 | 0.00 | 0.00 | 61 | 1008.7 |
| 20260509051904 | 71 | 150 | 3.0 | 7.0 | 0.00 | 0.00 | 0.00 | 61 | 1008.3 |
| 20260509050904 | 71 | 165 | 1.0 | 6.0 | 0.00 | 0.00 | 0.00 | 61 | 1008.5 |
| 20260509050405 | 71 | 152 | 4.0 | 9.0 | 0.00 | 0.00 | 0.00 | 61 | 1008.1 |
| 20260509045904 | 71 | 159 | 5.0 | 7.0 | 0.00 | 0.00 | 0.00 | 61 | 1008.0 |
| 20260509045404 | 71 | 178 | 3.0 | 8.0 | 0.00 | 0.00 | 0.00 | 60 | 1008.0 |
| 20260509044904 | 72 | 160 | 4.0 | 8.0 | 0.00 | 0.00 | 0.00 | 60 | 1007.7 |
| 20260509044404 | 72 | 146 | 5.0 | 8.0 | 0.00 | 0.00 | 0.00 | 60 | 1007.6 |
| 20260509043904 | 72 | 131 | 5.0 | 7.0 | 0.00 | 0.00 | 0.00 | 60 | 1007.9 |
| 20260509043404 | 72 | 117 | 2.0 | 3.0 | 0.00 | 0.00 | 0.00 | 60 | 1008.3 |
| 20260509042905 | 72 | 128 | 2.0 | 3.0 | 0.00 | 0.00 | 0.00 | 60 | 1008.3 |
| 20260509042404 | 72 | 127 | 1.0 | 3.0 | 0.00 | 0.00 | 0.00 | 60 | 1008.6 |
| 20260509041904 | 72 | 127 | 0.0 | 0.0 | 0.00 | 0.00 | 0.00 | 60 | 1008.9 |
| 20260509041404 | 72 | 127 | 0.0 | 0.0 | 0.00 | 0.00 | 0.00 | 60 | 1008.9 |
| 20260509040905 | 72 | 127 | 0.0 | 0.0 | 0.00 | 0.00 | 0.00 | 59 | 1009.0 |
| 20260509040404 | 72 | 127 | 0.0 | 0.0 | 0.00 | 0.00 | 0.00 | 60 | 1008.9 |
| 20260509034904 | 72 | 127 | 1.0 | 3.0 | 0.00 | 0.00 | 0.00 | 60 | 1008.7 |
| 20260509033904 | 72 | 126 | 1.0 | 3.0 | 0.00 | 0.00 | 0.00 | 59 | 1008.4 |
| 20260509033404 | 72 | 126 | 1.0 | 3.0 | 0.00 | 0.00 | 0.00 | 59 | 1008.3 |
| 20260509032904 | 72 | 126 | 1.0 | 2.0 | 0.00 | 0.00 | 0.00 | 59 | 1008.3 |
| 20260509031904 | 72 | 126 | 2.0 | 3.0 | 0.00 | 0.00 | 0.00 | 58 | 1008.2 |
| 20260509031404 | 72 | 125 | 2.0 | 5.0 | 0.00 | 0.00 | 0.00 | 58 | 1008.2 |
| 20260509030904 | 72 | 143 | 2.0 | 5.0 | 0.00 | 0.00 | 0.00 | 58 | 1008.1 |
| 20260509025904 | 72 | 130 | 2.0 | 3.0 | 0.00 | 0.00 | 0.00 | 58 | 1007.9 |
| 20260509025404 | 72 | 130 | 1.0 | 3.0 | 0.00 | 0.00 | 0.00 | 58 | 1007.9 |
| 20260509024904 | 72 | 130 | 1.0 | 3.0 | 0.00 | 0.00 | 0.00 | 58 | 1007.9 |
| 20260509024404 | 72 | 130 | 2.0 | 3.0 | 0.00 | 0.00 | 0.00 | 58 | 1007.8 |
| 20260509023905 | 72 | 130 | 1.0 | 3.0 | 0.00 | 0.00 | 0.00 | 58 | 1007.6 |
| 20260509023404 | 72 | 130 | 1.0 | 3.0 | 0.00 | 0.00 | 0.00 | 58 | 1007.5 |
| 20260509022404 | 72 | 139 | 3.0 | 5.0 | 0.00 | 0.00 | 0.00 | 58 | 1007.4 |
| 20260509021904 | 72 | 130 | 2.0 | 5.0 | 0.00 | 0.00 | 0.00 | 58 | 1007.3 |
| 20260509021404 | 72 | 130 | 2.0 | 3.0 | 0.00 | 0.00 | 0.00 | 58 | 1007.3 |
| 20260509020904 | 72 | 130 | 3.0 | 7.0 | 0.00 | 0.00 | 0.00 | 58 | 1007.5 |
| 20260509020404 | 72 | 144 | 3.0 | 5.0 | 0.00 | 0.00 | 0.00 | 57 | 1007.4 |
| 20260509015405 | 72 | 144 | 2.0 | 5.0 | 0.00 | 0.00 | 0.00 | 57 | 1007.4 |
| 20260509014904 | 73 | 144 | 3.0 | 3.0 | 0.00 | 0.00 | 0.00 | 57 | 1007.4 |
| 20260509014404 | 73 | 146 | 2.0 | 5.0 | 0.00 | 0.00 | 0.00 | 57 | 1007.3 |
| 20260509013904 | 73 | 146 | 2.0 | 3.0 | 0.00 | 0.00 | 0.00 | 57 | 1007.3 |
| 20260509012904 | 73 | 144 | 2.0 | 3.0 | 0.00 | 0.00 | 0.00 | 57 | 1007.2 |
| 20260509012404 | 73 | 144 | 2.0 | 3.0 | 0.00 | 0.00 | 0.00 | 56 | 1007.1 |
| 20260509011906 | 73 | 144 | 0.0 | 0.0 | 0.00 | 0.00 | 0.00 | 56 | 1007.1 |
| 20260509010905 | 73 | 144 | 1.0 | 3.0 | 0.00 | 0.00 | 0.00 | 55 | 1006.8 |
| 20260509004405 | 74 | 142 | 3.0 | 6.0 | 0.00 | 0.00 | 0.00 | 56 | 1006.5 |
| 20260509003904 | 74 | 153 | 3.0 | 7.0 | 0.00 | 0.00 | 0.00 | 55 | 1006.5 |
| 20260509003405 | 74 | 150 | 5.0 | 8.0 | 0.00 | 0.00 | 0.00 | 55 | 1006.5 |
| 20260509002404 | 74 | 143 | 4.0 | 9.0 | 0.00 | 0.00 | 0.00 | 55 | 1006.5 |
| 20260509001904 | 74 | 151 | 4.0 | 9.0 | 0.00 | 0.00 | 0.00 | 55 | 1006.6 |
| 20260509000904 | 74 | 144 | 2.0 | 5.0 | 0.00 | 0.00 | 0.00 | 54 | 1006.8 |
| 20260508235904 | 74 | 152 | 3.0 | 5.0 | 0.00 | 0.00 | 0.00 | 54 | 1006.9 |
| 20260508235404 | 74 | 145 | 3.0 | 6.0 | 0.00 | 0.00 | 0.00 | 54 | 1007.0 |
| 20260508234904 | 74 | 124 | 1.0 | 3.0 | 0.00 | 0.00 | 0.00 | 54 | 1007.1 |
| 20260508234404 | 74 | 124 | 5.0 | 10.0 | 0.00 | 0.00 | 0.00 | 54 | 1007.0 |
| 20260508233904 | 74 | 121 | 2.0 | 3.0 | 0.00 | 0.00 | 0.00 | 54 | 1007.1 |
| 20260508232904 | 74 | 82 | 2.0 | 6.0 | 0.00 | 0.00 | 0.00 | 53 | 1007.1 |
| 20260508232404 | 74 | 119 | 2.0 | 3.0 | 0.00 | 0.00 | 0.00 | 53 | 1007.0 |
| 20260508231905 | 74 | 136 | 3.0 | 5.0 | 0.00 | 0.00 | 0.00 | 53 | 1007.0 |
| 20260508231404 | 74 | 133 | 2.0 | 3.0 | 0.00 | 0.00 | 0.00 | 53 | 1007.1 |
| 20260508230904 | 74 | 133 | 3.0 | 5.0 | 0.00 | 0.00 | 0.00 | 53 | 1007.2 |
| 20260508225904 | 74 | 169 | 3.0 | 7.0 | 0.00 | 0.00 | 0.00 | 52 | 1007.2 |
| 20260508225404 | 75 | 142 | 3.0 | 6.0 | 0.00 | 0.00 | 0.00 | 52 | 1007.3 |
| 20260508224905 | 75 | 173 | 6.0 | 9.0 | 0.00 | 0.00 | 0.00 | 52 | 1007.2 |
| 20260508223904 | 75 | 148 | 6.0 | 10.0 | 0.00 | 0.00 | 0.00 | 51 | 1007.3 |
| 20260508223404 | 75 | 155 | 7.0 | 12.0 | 0.00 | 0.00 | 0.00 | 51 | 1007.2 |
| 20260508222904 | 75 | 172 | 8.0 | 12.0 | 0.00 | 0.00 | 0.00 | 51 | 1007.3 |
| 20260508222404 | 75 | 149 | 7.0 | 13.0 | 0.00 | 0.00 | 0.00 | 52 | 1007.3 |
| 20260508221904 | 75 | 160 | 9.0 | 12.0 | 0.00 | 0.00 | 0.00 | 53 | 1007.2 |
| 20260508221404 | 75 | 166 | 6.0 | 12.0 | 0.00 | 0.00 | 0.00 | 53 | 1007.2 |
| 20260508220904 | 75 | 180 | 5.0 | 10.0 | 0.00 | 0.00 | 0.00 | 53 | 1007.2 |
| 20260508220404 | 75 | 165 | 5.0 | 8.0 | 0.00 | 0.00 | 0.00 | 54 | 1007.1 |
| 20260508215904 | 74 | 165 | 6.0 | 8.0 | 0.00 | 0.00 | 0.00 | 54 | 1007.1 |
| 20260508215405 | 74 | 171 | 5.0 | 9.0 | 0.00 | 0.00 | 0.00 | 54 | 1007.0 |
| 20260508214904 | 74 | 126 | 4.0 | 9.0 | 0.00 | 0.00 | 0.00 | 55 | 1006.9 |
| 20260508214404 | 74 | 139 | 4.0 | 7.0 | 0.00 | 0.00 | 0.00 | 55 | 1007.0 |
| 20260508213904 | 74 | 163 | 2.0 | 5.0 | 0.00 | 0.00 | 0.00 | 56 | 1006.9 |
| 20260508213404 | 74 | 164 | 2.0 | 9.0 | 0.00 | 0.00 | 0.00 | 56 | 1006.9 |
| 20260508212904 | 73 | 190 | 2.0 | 9.0 | 0.00 | 0.00 | 0.00 | 55 | 1006.9 |
| 20260508212404 | 74 | 8 | 4.0 | 10.0 | 0.00 | 0.00 | 0.00 | 54 | 1006.6 |
| 20260508211904 | 74 | 124 | 7.0 | 13.0 | 0.00 | 0.00 | 0.00 | 53 | 1006.5 |
| 20260508211404 | 75 | 144 | 6.0 | 12.0 | 0.00 | 0.00 | 0.00 | 53 | 1007.6 |
| 20260508210904 | 75 | 187 | 5.0 | 10.0 | 0.00 | 0.00 | 0.00 | 52 | 1008.7 |
| 20260508210403 | 75 | 205 | 4.0 | 8.0 | 0.00 | 0.00 | 0.00 | 51 | 1008.3 |
| 20260508205904 | 75 | 175 | 6.0 | 10.0 | 0.00 | 0.00 | 0.00 | 50 | 1008.3 |
| 20260508205404 | 76 | 177 | 7.0 | 10.0 | 0.00 | 0.00 | 0.00 | 50 | 1008.8 |
| 20260508204904 | 76 | 179 | 7.0 | 12.0 | 0.00 | 0.00 | 0.00 | 49 | 1008.9 |
| 20260508204404 | 77 | 190 | 5.0 | 12.0 | 0.00 | 0.00 | 0.00 | 49 | 1009.0 |
| 20260508203904 | 77 | 188 | 5.0 | 12.0 | 0.00 | 0.00 | 0.00 | 49 | 1009.0 |
| 20260508203404 | 77 | 214 | 4.0 | 8.0 | 0.00 | 0.00 | 0.00 | 48 | 1009.0 |
| 20260508202904 | 77 | 191 | 3.0 | 7.0 | 0.00 | 0.00 | 0.00 | 48 | 1008.8 |
| 20260508201904 | 78 | 175 | 6.0 | 12.0 | 0.00 | 0.00 | 0.00 | 49 | 1008.7 |
| 20260508201404 | 78 | 169 | 5.0 | 8.0 | 0.00 | 0.00 | 0.00 | 48 | 1008.8 |
| 20260508200905 | 78 | 131 | 3.0 | 8.0 | 0.00 | 0.00 | 0.00 | 48 | 1008.8 |
| 20260508200404 | 78 | 109 | 6.0 | 10.0 | 0.00 | 0.00 | 0.00 | 48 | 1008.7 |
| 20260508195904 | 78 | 138 | 4.0 | 9.0 | 0.00 | 0.00 | 0.00 | 47 | 1008.7 |
| 20260508195404 | 78 | 167 | 6.0 | 9.0 | 0.00 | 0.00 | 0.00 | 48 | 1008.8 |
| 20260508194904 | 78 | 144 | 5.0 | 10.0 | 0.00 | 0.00 | 0.00 | 47 | 1008.9 |
| 20260508193905 | 78 | 138 | 7.0 | 10.0 | 0.00 | 0.00 | 0.00 | 47 | 1009.0 |
| 20260508193405 | 78 | 157 | 4.0 | 8.0 | 0.00 | 0.00 | 0.00 | 47 | 1008.9 |
| 20260508191904 | 79 | 163 | 5.0 | 12.0 | 0.00 | 0.00 | 0.00 | 47 | 1009.2 |
| 20260508191404 | 79 | 146 | 6.0 | 12.0 | 0.00 | 0.00 | 0.00 | 48 | 1009.3 |
| 20260508190904 | 79 | 154 | 4.0 | 12.0 | 0.00 | 0.00 | 0.00 | 47 | 1009.4 |
| 20260508190404 | 79 | 129 | 8.0 | 12.0 | 0.00 | 0.00 | 0.00 | 46 | 1009.4 |
| 20260508185904 | 79 | 168 | 8.0 | 12.0 | 0.00 | 0.00 | 0.00 | 47 | 1009.4 |
| 20260508184905 | 79 | 148 | 7.0 | 12.0 | 0.00 | 0.00 | 0.00 | 46 | 1009.5 |
| 20260508184405 | 79 | 159 | 7.0 | 12.0 | 0.00 | 0.00 | 0.00 | 45 | 1009.5 |
| 20260508183904 | 79 | 153 | 6.0 | 10.0 | 0.00 | 0.00 | 0.00 | 46 | 1009.5 |
| 20260508183404 | 79 | 172 | 6.0 | 12.0 | 0.00 | 0.00 | 0.00 | 48 | 1009.6 |
| 20260508182905 | 78 | 165 | 5.0 | 12.0 | 0.00 | 0.00 | 0.00 | 47 | 1009.6 |
| 20260508182404 | 78 | 171 | 5.0 | 10.0 | 0.00 | 0.00 | 0.00 | 47 | 1009.7 |
| 20260508181904 | 77 | 172 | 5.0 | 8.0 | 0.00 | 0.00 | 0.00 | 48 | 1009.8 |
| 20260508181404 | 77 | 133 | 6.0 | 12.0 | 0.00 | 0.00 | 0.00 | 49 | 1009.9 |
| 20260508180913 | 77 | 163 | 6.0 | 10.0 | 0.00 | 0.00 | 0.00 | 48 | 1010.0 |
| 20260508180405 | 76 | 94 | 1.0 | 6.0 | 0.00 | 0.00 | 0.00 | 48 | 1010.1 |
| 20260508175905 | 77 | 128 | 3.0 | 8.0 | 0.00 | 0.00 | 0.00 | 49 | 1010.2 |